EW5212 Weather Reports


time (UTC)temp
F
wind
direction
speed
knots
gust
knots
rain 1hr
in
rain 24hr
in
rain mn
in
humidity
%
barometer
mb
20260905093517 68 0.0 0.0 0.01 0.40 0.01 100 1011.8
20260905092516 69 0.0 0.0 0.01 0.40 0.01 100 1011.7
20260905091536 69 0.0 0.0 0.01 0.40 0.01 100 1011.7
20260905090516 69 0.0 0.0 0.00 0.39 0.00 100 1011.5
20260905085516 69 0.0 0.0 0.00 0.39 0.00 100 1011.6
20260905084516 69 0.0 0.0 0.00 0.39 0.00 100 1011.6
20260905083516 69 0.0 0.0 0.00 0.39 0.00 100 1011.7
20260905082517 69 0.0 0.0 0.00 0.39 0.00 100 1011.8
20260905081516 69 0.0 0.0 0.00 0.39 0.00 100 1011.9
20260905080516 70 0.0 0.0 0.00 0.39 0.00 100 1012.0
20260905075516 70 0.0 0.0 0.00 0.39 0.00 100 1012.1
20260905074517 70 0.0 0.0 0.00 0.39 0.00 100 1012.3
20260905073517 70 0.0 0.0 0.00 0.39 0.00 100 1012.4
20260905072536 70 0.0 0.0 0.00 0.39 0.00 100 1012.5
20260905071536 70 0.0 0.0 0.00 0.39 0.00 100 1012.5
20260905070516 70 0.0 0.0 0.00 0.39 0.00 100 1012.5
20260905065516 70 0.0 0.0 0.00 0.39 0.00 100 1012.5
20260905064516 70 0.0 0.0 0.00 0.39 0.00 100 1012.7
20260905063516 70 0.0 0.0 0.00 0.39 0.00 100 1012.7
20260905062517 71 0.0 0.0 0.00 0.39 0.00 100 1012.7
20260905061516 71 0.0 0.0 0.00 0.39 0.00 100 1012.9
20260905060516 71 0.0 0.9 0.00 0.39 0.00 100 1013.0
20260905055516 71 0.0 0.0 0.00 0.39 0.00 100 1013.2
20260905054516 71 0.0 0.0 0.00 0.39 0.00 100 1013.4
20260905053516 71 0.0 0.0 0.00 0.39 0.00 100 1013.6
20260905052516 71 0.0 0.0 0.00 0.39 0.00 100 1013.7
20260905051536 71 0.0 0.9 0.00 0.39 0.00 100 1013.8
20260905050516 71 0.0 0.0 0.00 0.39 0.00 100 1014.1
20260905045517 71 0.0 0.0 0.00 0.39 0.00 100 1014.4
20260905044517 71 0.0 0.0 0.00 0.39 0.00 100 1014.4
20260905043516 71 0.0 0.0 0.00 0.39 0.00 100 1014.5
20260905042516 71 0.0 0.0 0.00 0.39 0.00 100 1014.6
20260905041516 71 0.0 0.9 0.00 0.39 0.00 100 1014.6
20260905040516 71 0.0 0.0 0.00 0.39 0.00 100 1014.6
20260905035516 71 0.0 0.0 0.00 0.39 0.39 100 1014.6
20260905034516 71 0.0 0.0 0.00 0.39 0.39 100 1014.7
20260905033536 71 0.0 0.0 0.00 0.39 0.39 100 1014.7
20260905032516 71 0.0 0.0 0.00 0.39 0.39 100 1014.7
20260905031516 71 0.0 0.0 0.00 0.39 0.39 100 1014.6
20260905030516 72 0.0 0.9 0.00 0.39 0.39 100 1014.5
20260905025516 72 0.0 0.0 0.00 0.39 0.39 100 1014.5
20260905024516 72 0.0 3.5 0.00 0.39 0.39 100 1014.6
20260905023516 72 0.0 0.0 0.00 0.39 0.39 100 1014.8
20260905022516 72 0.0 0.0 0.00 0.39 0.39 100 1014.7
20260905021516 72 0.0 0.0 0.00 0.39 0.39 100 1014.8
20260905020515 72 0.0 0.9 0.00 0.39 0.39 100 1014.7
20260905015516 72 0.0 0.9 0.00 0.39 0.39 100 1014.4
20260905014515 72 0.0 0.9 0.00 0.39 0.39 100 1014.5
20260905013516 72 0.0 0.9 0.00 0.39 0.39 100 1014.4
20260905012516 71 0.0 0.0 0.00 0.39 0.39 100 1014.2
20260905011516 71 0.0 0.0 0.00 0.39 0.39 100 1013.8
20260905010517 71 0.0 0.0 0.00 0.39 0.39 100 1013.6
20260905005515 72 0.0 0.0 0.00 0.39 0.39 100 1013.5
20260905004516 72 0.0 0.0 0.00 0.39 0.39 100 1013.7
20260905003537 72 0.0 0.0 0.00 0.39 0.39 100 1013.6
20260905002516 72 0.0 0.9 0.00 0.39 0.39 100 1013.3
20260905001515 72 0.0 0.0 0.00 0.39 0.39 100 1013.4
20260905000516 72 0.0 0.0 0.01 0.39 0.39 100 1012.9
20260904235515 72 0.0 0.0 0.01 0.39 0.39 100 1013.0
20260904234516 72 0.0 0.9 0.01 0.39 0.39 100 1013.3
20260904233516 72 0.0 1.7 0.03 0.39 0.39 100 1013.4
20260904232536 72 0.0 2.6 0.03 0.39 0.39 100 1013.4
20260904231515 72 0.0 2.6 0.03 0.39 0.39 100 1014.4
20260904230515 72 0.0 0.9 0.11 0.38 0.38 100 1014.4
20260904225555 72 0.0 0.0 0.24 0.38 0.38 99 1014.2
20260904224516 72 0.0 0.9 0.33 0.38 0.38 99 1013.8
20260904223535 73 0.0 3.5 0.32 0.36 0.36 99 1014.5
20260904222515 73 270 0.9 5.2 0.32 0.36 0.36 99 1014.9
20260904221515 73 45 0.9 2.6 0.36 0.36 0.36 98 1014.5
20260904220516 73 0.0 2.6 0.27 0.27 0.27 98 1015.1
20260904215515 74 270 1.7 6.1 0.14 0.14 0.14 96 1015.7
20260904214555 73 0.0 0.9 0.05 0.05 0.05 97 1014.4
20260904213515 73 45 1.7 5.2 0.04 0.04 0.04 93 1013.8
20260904212515 77 45 4.3 8.7 0.04 0.04 0.04 85 1014.8
20260904211536 85 45 2.6 8.7 0.00 0.00 0.00 77 1014.7
20260904210636 90 315 1.7 7.0 0.00 0.00 0.00 73 1013.7
20260904205515 92 0.0 0.0 0.00 0.00 0.00 75 1012.9
20260904204515 92 0.0 0.0 0.00 0.00 0.00 74 1012.5
20260904203516 94 0.0 0.9 0.00 0.00 0.00 69 1012.6
20260904202516 96 0.0 0.9 0.00 0.00 0.00 63 1012.4
20260904201535 95 0.0 0.0 0.00 0.00 0.00 69 1012.2
20260904200515 94 0.0 0.9 0.00 0.00 0.00 68 1012.5
20260904195515 93 0.0 0.0 0.00 0.00 0.00 72 1012.8
20260904194515 95 0.0 0.9 0.00 0.00 0.00 68 1013.2
20260904193515 98 0.0 0.9 0.00 0.00 0.00 63 1013.2
20260904192515 98 270 0.9 3.5 0.00 0.00 0.00 59 1013.3
20260904191515 97 0.0 0.9 0.00 0.00 0.00 64 1013.4
20260904190535 97 0.0 1.7 0.00 0.00 0.00 64 1013.5
20260904185515 98 23 0.9 2.6 0.00 0.00 0.00 62 1013.7
20260904184516 97 270 0.9 1.7 0.00 0.00 0.00 59 1014.0
20260904183515 96 270 0.9 4.3 0.00 0.00 0.00 62 1014.3
20260904182515 95 45 0.9 1.7 0.00 0.00 0.00 67 1014.4
20260904181515 96 0.0 0.9 0.00 0.00 0.00 67 1014.5
20260904180515 96 23 0.9 1.7 0.00 0.00 0.00 66 1014.7
20260904175515 96 0.0 0.9 0.00 0.00 0.00 66 1014.8
20260904174516 96 0.0 1.7 0.00 0.00 0.00 65 1014.9
20260904173515 97 0.0 0.9 0.00 0.00 0.00 64 1015.0
20260904172515 96 0.0 0.9 0.00 0.00 0.00 66 1015.2
20260904171536 95 23 0.9 3.5 0.00 0.00 0.00 63 1015.1
20260904170515 96 0.0 0.9 0.00 0.00 0.00 63 1015.0
20260904165515 96 0.0 3.5 0.00 0.00 0.00 63 1015.1
20260904164515 94 45 0.9 2.6 0.00 0.00 0.00 65 1015.2
20260904163515 95 0.0 0.9 0.00 0.00 0.00 68 1015.2
20260904162517 94 0.0 1.7 0.00 0.00 0.00 69 1015.3
20260904161515 93 0.0 0.9 0.00 0.00 0.00 70 1015.3
20260904160515 94 45 0.9 1.7 0.00 0.00 0.00 69 1015.4
20260904155515 94 0.0 0.9 0.00 0.00 0.00 69 1015.6
20260904154515 93 45 0.9 1.7 0.00 0.00 0.00 69 1015.8
20260904153515 93 315 0.9 2.6 0.00 0.00 0.00 70 1015.7
20260904152535 93 0.0 1.7 0.00 0.00 0.00 71 1015.5
20260904151517 92 68 0.9 1.7 0.00 0.00 0.00 71 1015.6
20260904150517 93 270 1.7 4.3 0.00 0.00 0.00 68 1015.5
20260904145515 93 248 0.9 1.7 0.00 0.00 0.00 70 1015.5
20260904144517 93 0.0 1.7 0.00 0.00 0.00 73 1015.5
20260904143517 92 0.0 1.7 0.00 0.00 0.00 72 1015.4
20260904142517 91 293 0.9 3.5 0.00 0.00 0.00 73 1015.3
20260904141517 90 293 0.9 2.6 0.00 0.00 0.00 75 1015.3
20260904140537 90 0.0 1.7 0.00 0.00 0.00 75 1015.2
20260904135517 89 0.0 1.7 0.00 0.00 0.00 77 1015.4
20260904134517 88 0.0 1.7 0.00 0.00 0.00 77 1015.2
20260904133517 87 0.0 0.0 0.00 0.00 0.00 80 1015.2
20260904132517 86 0.0 0.9 0.00 0.00 0.00 80 1015.1
20260904131538 84 270 0.9 2.6 0.00 0.00 0.00 82 1015.2
20260904130517 83 0.0 2.6 0.00 0.00 0.00 85 1015.1
20260904125517 81 248 0.9 5.2 0.00 0.00 0.00 87 1015.1
20260904124517 80 270 0.9 4.3 0.00 0.00 0.00 89 1015.3
20260904123517 79 0.0 0.9 0.00 0.00 0.00 91 1015.2
20260904122517 78 248 1.7 5.2 0.00 0.00 0.00 92 1015.1
20260904121516 76 248 0.9 3.5 0.00 0.00 0.00 97 1015.2
20260904120537 74 0.0 0.9 0.00 0.00 0.00 100 1015.2
20260904115517 72 0.0 0.0 0.00 0.00 0.00 100 1015.1
20260904114517 72 0.0 0.0 0.00 0.00 0.00 99 1014.9
20260904113517 72 0.0 0.0 0.00 0.00 0.00 99 1014.9
20260904112517 71 0.0 0.0 0.00 0.00 0.00 99 1015.0
20260904111517 71 0.0 0.0 0.00 0.00 0.00 99 1015.1
20260904110516 71 0.0 0.0 0.00 0.00 0.00 99 1015.0
20260904105517 71 0.0 0.0 0.00 0.00 0.00 99 1014.9
20260904104537 72 0.0 0.0 0.00 0.00 0.00 99 1015.0
20260904103557 72 0.0 0.0 0.00 0.00 0.00 98 1014.8
20260904102517 72 0.0 0.0 0.00 0.00 0.00 98 1014.9
20260904101517 72 0.0 0.0 0.00 0.00 0.00 98 1014.9
20260904100517 72 0.0 0.0 0.00 0.00 0.00 98 1014.8
20260904095517 72 0.0 0.0 0.00 0.00 0.00 98 1015.0
20260904094517 72 0.0 0.0 0.00 0.00 0.00 98 1015.0